Content
SEND FEEDBACK

Daily
Averages
Monthly
Summary
United Kingdom

NEWTOWNNARDS, NORTHERN IRELAND


Home > Europe > United Kingdom > Northern Ireland
Elevation: 112 feet     Latitude: 54 40N     Longitude: 005 35W

WEATHER
 
SELECT A DAY
Number of Records: 191,764;   Date Range: 7/1/96 - 9/19/14
 
SHARE

PRINT THIS DATA

[ ← Previous Day ]
WEATHER ALMANAC - FEBRUARY 22, 2013
[ Next Day → ]
[ °C ]   °F
Weather ElementAverageHighLow
Temperature36.2 °F37.4 °F (12:20 pm)35.6 °F (6:50 am)
Dewpoint24.6 °F26.6 °F (5:50 pm)23 °F (7:20 am)
Humidity62.8 %70 % (5:50 pm)56 % (12:50 pm)
Barometer30.25 in30.27 in (10:20 am)30.21 in (6:50 am)
Wind Speed7.6 mph10.4 mph (10:20 am)
Wind Gust19.6 mph (3:50 pm)
Weather ElementAverage
Visibility6.2 mi
Wind DirectionE (94.2 °)

Weather ElementTotal
Precipitation---
Heating Degree Days28.5 (Base 65)
Averaged from 31 records on February 22, 2013
WEATHER CONDITIONS BREAKOUT
WIND DIRECTION BREAKOUT
WEATHER BY HOUR - FEBRUARY 22, 2013
[ °C ]   °F
Local TimeTemperatureDewpointHumidityBarometerVisibilityWind DirectionWind SpeedGust SpeedPrecipitationEventsConditions
6:50 AM35.6 °F24.8 °F65 %30.21 in6.2 miEast (100°)9.2 mphMostly Cloudy
7:20 AM35.6 °F23.0 °F60 %30.24 in6.2 miEast (100°)8.1 mphMostly Cloudy
7:50 AM35.6 °F24.8 °F65 %30.24 in6.2 miEast (100°)9.2 mphMostly Cloudy
8:20 AM35.6 °F23.0 °F60 %30.24 in6.2 miESE (110°)9.2 mphMostly Cloudy
8:50 AM35.6 °F23.0 °F60 %30.24 in6.2 miESE (120°)9.2 mphMostly Cloudy
9:20 AM35.6 °F24.8 °F65 %30.24 in6.2 miESE (110°)8.1 mphMostly Cloudy
9:50 AM35.6 °F24.8 °F65 %30.24 in6.2 miESE (110°)9.2 mphMostly Cloudy
10:20 AM35.6 °F24.8 °F65 %30.27 in6.2 miESE (110°)10.4 mphMostly Cloudy
10:50 AM35.6 °F24.8 °F65 %30.27 in6.2 miESE (120°)9.2 mphMostly Cloudy
11:20 AM35.6 °F24.8 °F65 %30.27 in6.2 miESE (110°)9.2 mphMostly Cloudy
11:50 AM35.6 °F24.8 °F65 %30.27 in6.2 miESE (110°)9.2 mphMostly Cloudy
12:20 PM37.4 °F24.8 °F60 %30.27 in6.2 miESE (120°)9.2 mphMostly Cloudy
12:50 PM37.4 °F23.0 °F56 %30.27 in6.2 miEast (100°)10.4 mphMostly Cloudy
1:20 PM37.4 °F24.8 °F60 %30.24 in6.2 miESE (110°)10.4 mphMostly Cloudy
1:50 PM37.4 °F24.8 °F60 %30.24 in6.2 miEast (100°)8.1 mphMostly Cloudy
2:20 PM37.4 °F24.8 °F60 %30.24 in6.2 miESE (120°)6.9 mphMostly Cloudy
2:50 PM37.4 °F24.8 °F60 %30.24 in6.2 miESE (120°)5.8 mphMostly Cloudy
3:20 PM37.4 °F24.8 °F60 %30.24 in6.2 miSE (130°)6.9 mphMostly Cloudy
3:50 PM37.4 °F24.8 °F60 %30.24 in6.2 miESE (120°)5.8 mph19.6 mphMostly Cloudy
4:20 PM37.4 °F24.8 °F60 %30.24 in6.2 miEast (100°)4.6 mphMostly Cloudy
4:50 PM37.4 °F24.8 °F60 %30.24 in6.2 miEast (100°)5.8 mphMostly Cloudy
5:20 PM37.4 °F24.8 °F60 %30.24 in6.2 miEast (80°)5.8 mphMostly Cloudy
5:50 PM35.6 °F26.6 °F70 %30.27 in6.2 miENE (70°)6.9 mphMostly Cloudy
6:20 PM35.6 °F26.6 °F70 %30.27 in6.2 miENE (70°)9.2 mphMostly Cloudy
6:50 PM35.6 °F24.8 °F65 %30.27 in6.2 miENE (60°)9.2 mphMostly Cloudy
7:20 PM35.6 °F24.8 °F65 %30.27 in6.2 miENE (60°)6.9 mphMostly Cloudy
7:50 PM35.6 °F24.8 °F65 %30.27 in6.2 miNE (50°)3.5 mphMostly Cloudy
8:20 PM35.6 °F24.8 °F65 %30.27 in6.2 miVariable3.5 mphMostly Cloudy
8:50 PM35.6 °F24.8 °F65 %30.27 in6.2 miENE (60°)6.9 mphMostly Cloudy
9:20 PM35.6 °F24.8 °F65 %30.27 in6.2 miEast (80°)3.5 mphMostly Cloudy
9:50 PM35.6 °F23.0 °F60 %30.27 in6.2 miENE (70°)5.8 mphMostly Cloudy
Hourly data recorded from EGAC, located miles away from Newtownnards, Northern Ireland







STORIES FROM OUR PARTNERS